[[{"header":{"parameterUnit":"m.s-1","parameterCategory":1,"la1":30.2992,"la2":30.254,"lo1":-89.0895,"lo2":-89.0443,"dy":0.0025,"dx":0.0025,"nx":19,"ny":19,"refTime":"2026-04-01T03:00:00:Z","depth":0,"parameterNumber":2,"parameterNumberName":"U-component_of_WINDS"},"data":[0,0,0,-2.5783,-2.5787,-2.6006,-2.6007,-2.6268,-2.627,0,0,0,0,0,0,0,0,0,0,0,-2.5699,-2.57,-2.5783,-2.5788,-2.6006,-2.6007,-2.6267,-2.627,0,0,0,0,0,0,0,0,0,0,0,-2.5699,-2.57,-2.5701,-2.5788,-2.6006,-2.6007,-2.6267,-2.611,0,0,0,0,0,0,0,0,0,0,-2.5902,-2.5804,-2.57,-2.5701,-2.5789,-2.6006,-2.6007,-2.6103,-2.612,-2.6158,0,-2.618,0,-2.6228,-2.6285,-2.6286,0,0,0,-2.5803,-2.5789,-2.5865,-2.5701,-2.5791,-2.6005,-2.5912,-2.6113,-2.6132,-2.618,-2.6184,-2.6194,-2.6233,-2.6287,-2.6288,-2.6439,-2.6439,0,0,-2.5791,-2.573,-2.5852,-2.5876,-2.5834,-2.5905,-2.5919,-2.6125,-2.6128,-2.6185,-2.6201,-2.6237,-2.6288,-2.629,-2.6439,-2.6439,0,0,0,-2.5746,-2.572,-2.5792,-2.5865,-2.5905,-2.5911,-2.5927,-2.6118,-2.6147,-2.6204,-2.624,-2.6289,-2.6292,-2.6439,-2.6439,-2.6375,0,0,0,-2.5739,-2.5694,-2.5786,-2.575,-2.5901,-2.6013,-2.5915,-2.6132,-2.6157,-2.6239,-2.629,-2.6295,-2.644,-2.6439,-2.6377,-2.6355,0,0,0,-2.5692,-2.5689,-2.5713,-2.5746,-2.5837,-2.6011,-2.6052,-2.6139,-2.6179,-2.6286,-2.6295,-2.644,-2.6439,-2.6378,-2.6358,-2.6377,0,0,0,-2.5624,-2.5654,-2.5711,-2.576,-2.5835,-2.5968,-2.6051,-2.6155,-2.6239,-2.6291,-2.6439,-2.6439,-2.6379,-2.636,-2.6378,-2.638,-2.6375,0,0,-2.5628,-2.5652,-2.5687,-2.5744,-2.5849,-2.594,-2.604,-2.6178,-2.6249,-2.6374,-2.6378,-2.6376,-2.6358,-2.6377,-2.637,-2.6365,0,0,0,-2.5667,-2.569,-2.5732,-2.5807,-2.5911,-2.6001,-2.613,-2.6183,-2.6291,-2.6297,-2.6391,-2.6382,-2.6396,-2.64,-2.6396,-2.6413,-2.6438,-2.6438,-2.6439,-2.5583,-2.5668,-2.5732,-2.5843,-2.5917,-2.6051,-2.612,-2.6215,-2.6282,-2.6303,-2.6339,-2.6324,-2.6326,-2.6324,-2.634,-2.6349,-2.6349,-2.6348,-2.6348,-2.5597,-2.5644,-2.5732,-2.5824,-2.5917,-2.5999,-2.6133,-2.6178,-2.6272,-2.6302,-2.6319,-2.6344,-2.6316,-2.6335,-2.6344,-2.6345,-2.6345,-2.6346,-2.6346,-2.555,-2.5588,-2.5649,-2.5768,-2.5853,-2.597,-2.6055,-2.6138,-2.6218,-2.6235,-2.6285,-2.6286,-2.6298,-2.6253,-2.6253,-2.6253,-2.6253,-2.6253,-2.6253,-2.5477,-2.5548,-2.5606,-2.5721,-2.5782,-2.5874,-2.6013,-2.6079,-2.6173,-2.6228,-2.6229,-2.6295,-2.6296,-2.6294,-2.6252,-2.6252,-2.6252,-2.6252,-2.6252,-2.5458,-2.5476,-2.5564,-2.5625,-2.577,-2.5851,-2.5957,-2.6083,-2.615,-2.6191,-2.6257,-2.6243,-2.6276,-2.628,-2.6279,-2.6236,-2.6236,-2.6236,-2.6236,-2.5418,-2.5442,-2.5553,-2.5645,-2.5747,-2.5852,-2.5959,-2.607,-2.619,-2.6239,-2.6258,-2.6265,-2.6265,-2.6298,-2.6302,-2.6302,-2.6266,-2.6266,-2.6266,-2.5411,-2.545,-2.5518,-2.5629,-2.5751,-2.5855,-2.5959,-2.6069,-2.6209,-2.6269,-2.6279,-2.6278,-2.629,-2.6289,-2.6344,-2.6348,-2.6351,0,0]},{"header":{"parameterUnit":"m.s-1","parameterCategory":1,"la1":30.2992,"la2":30.254,"lo1":-89.0895,"lo2":-89.0443,"dy":0.0025,"dx":0.0025,"nx":19,"ny":19,"refTime":"2026-04-01T03:00:00:Z","depth":0,"parameterNumber":3,"parameterNumberName":"V-component_of_WINDS"},"data":[0,0,0,2.3712,2.371,2.3637,2.3637,2.3543,2.3542,0,0,0,0,0,0,0,0,0,0,0,2.3731,2.373,2.3712,2.371,2.3637,2.3637,2.3543,2.3542,0,0,0,0,0,0,0,0,0,0,0,2.3732,2.3731,2.373,2.371,2.3637,2.3637,2.3544,2.3599,0,0,0,0,0,0,0,0,0,0,2.367,2.3685,2.3731,2.373,2.3709,2.3637,2.3637,2.3602,2.3596,2.3575,0,2.3555,0,2.3547,2.3536,2.3536,0,0,0,2.3712,2.369,2.3673,2.373,2.3709,2.3637,2.3671,2.3598,2.3591,2.3567,2.3554,2.3551,2.3546,2.3535,2.3535,2.341,2.341,0,0,2.3716,2.3717,2.3678,2.3668,2.3678,2.3673,2.3668,2.3594,2.358,2.3554,2.3549,2.3544,2.3535,2.3534,2.3411,2.341,0,0,0,2.3726,2.372,2.3704,2.3672,2.3659,2.3671,2.3665,2.3584,2.3579,2.3548,2.3543,2.3534,2.3533,2.3411,2.3411,2.3378,0,0,0,2.3729,2.3726,2.3706,2.3706,2.366,2.362,2.3657,2.3584,2.3575,2.3544,2.3534,2.3532,2.3412,2.3411,2.3381,2.3363,0,0,0,2.3737,2.3727,2.3715,2.3706,2.3675,2.3621,2.3612,2.3582,2.3572,2.3535,2.3532,2.3413,2.3411,2.3383,2.3366,2.3331,0,0,0,2.3746,2.3688,2.3715,2.3649,2.3675,2.3602,2.3612,2.3558,2.3522,2.3534,2.3412,2.3411,2.3384,2.3369,2.3333,2.3301,2.3287,0,0,2.3673,2.3679,2.364,2.3662,2.3584,2.3613,2.3531,2.3497,2.3493,2.3439,2.3435,2.338,2.3367,2.3331,2.3212,2.3202,0,0,0,2.3617,2.3589,2.3569,2.3535,2.3508,2.3484,2.3463,2.3451,2.3405,2.3465,2.3358,2.335,2.3329,2.3313,2.3304,2.3287,2.3404,2.3404,2.3404,2.3515,2.3514,2.345,2.3439,2.3407,2.3387,2.3361,2.3342,2.3349,2.3324,2.3307,2.3236,2.3217,2.3211,2.3192,2.3291,2.3291,2.329,2.329,2.3409,2.3369,2.3382,2.3324,2.3323,2.3275,2.3255,2.3263,2.3219,2.3247,2.3229,2.326,2.3199,2.3183,2.3288,2.3288,2.3289,2.3289,2.3289,2.3341,2.3322,2.3309,2.3262,2.3226,2.3218,2.3176,2.3177,2.3178,2.316,2.3143,2.3144,2.3145,2.3152,2.3152,2.3152,2.3151,2.3151,2.3151,2.3276,2.3263,2.3226,2.3195,2.3174,2.3148,2.313,2.311,2.3089,2.3093,2.3093,2.3103,2.3193,2.3216,2.3147,2.3148,2.3148,2.3149,2.3149,2.3168,2.3193,2.3137,2.3117,2.3081,2.3046,2.3049,2.301,2.2994,2.2973,2.2989,2.3055,2.3061,2.3068,2.3087,2.2989,2.2989,2.2989,2.2989,2.3111,2.3115,2.3058,2.3026,2.2995,2.2992,2.2931,2.2918,2.2907,2.2898,2.2913,2.2938,2.2945,2.2947,2.2957,2.2974,2.285,2.285,2.2849,2.3045,2.3046,2.2992,2.2982,2.2955,2.2933,2.2875,2.284,2.2834,2.2844,2.2891,2.2897,2.2937,2.2951,2.296,2.2976,2.3007,0,0]}]]